Time,TemperatureF,DewpointF,PressureIn,WindDirection,WindDirectionDegrees,WindSpeedMPH,WindSpeedGustMPH,Humidity,HourlyPrecipIn,Conditions,Clouds,dailyrainin,SoftwareType,DateUTC
2013-08-29 00:11:00,71.5,70.0,29.97,NW,308,0.0,-999.0,94,-99.99,,,0.00,weatherlink.com 1.10,2013-08-29 04:11:00,
2013-08-29 00:26:00,71.2,70.0,29.97,NW,308,0.0,-999.0,95,-99.99,,,0.00,weatherlink.com 1.10,2013-08-29 04:26:00,
2013-08-29 00:41:00,70.4,69.0,29.98,NW,308,0.0,-999.0,95,-99.99,,,0.00,weatherlink.com 1.10,2013-08-29 04:41:00,
2013-08-29 00:56:00,70.0,69.0,29.98,NW,308,0.0,-999.0,95,-99.99,,,0.00,weatherlink.com 1.10,2013-08-29 04:56:00,
2013-08-29 01:11:00,69.2,68.0,29.98,NW,308,0.0,-999.0,95,-99.99,,,0.00,weatherlink.com 1.10,2013-08-29 05:11:00,
2013-08-29 01:26:00,68.0,67.0,29.98,NW,308,0.0,-999.0,95,-99.99,,,0.00,weatherlink.com 1.10,2013-08-29 05:26:00,
2013-08-29 01:41:00,67.5,66.0,29.99,NW,308,0.0,-999.0,95,-99.99,,,0.00,weatherlink.com 1.10,2013-08-29 05:41:00,
2013-08-29 01:56:00,67.7,67.0,29.99,NW,308,0.0,-999.0,97,-99.99,,,0.00,weatherlink.com 1.10,2013-08-29 05:56:00,
2013-08-29 02:11:00,68.9,68.0,29.99,NW,308,0.0,-999.0,97,-99.99,,,0.00,weatherlink.com 1.10,2013-08-29 06:11:00,
2013-08-29 02:26:00,68.9,68.0,29.99,NW,308,0.0,-999.0,96,-99.99,,,0.00,weatherlink.com 1.10,2013-08-29 06:26:00,
2013-08-29 02:41:00,68.6,68.0,29.98,NW,308,0.0,-999.0,96,-99.99,,,0.00,weatherlink.com 1.10,2013-08-29 06:41:00,
2013-08-29 02:56:00,68.3,68.0,29.99,NW,308,0.0,-999.0,97,-99.99,,,0.00,weatherlink.com 1.10,2013-08-29 06:56:00,
2013-08-29 03:11:00,68.0,67.0,29.99,NW,308,0.0,-999.0,96,-99.99,,,0.00,weatherlink.com 1.10,2013-08-29 07:11:00,
2013-08-29 03:26:00,68.1,67.0,29.99,NW,308,0.0,-999.0,97,-99.99,,,0.00,weatherlink.com 1.10,2013-08-29 07:26:00,
2013-08-29 03:41:00,67.8,67.0,29.99,NW,308,0.0,-999.0,97,-99.99,,,0.00,weatherlink.com 1.10,2013-08-29 07:41:00,
2013-08-29 03:56:00,67.6,67.0,29.99,NW,308,0.0,-999.0,97,-99.99,,,0.00,weatherlink.com 1.10,2013-08-29 07:56:00,
2013-08-29 04:11:00,67.3,67.0,29.99,NW,308,0.0,-999.0,97,-99.99,,,0.00,weatherlink.com 1.10,2013-08-29 08:11:00,
2013-08-29 04:26:00,66.7,66.0,29.99,NW,308,0.0,-999.0,96,-99.99,,,0.00,weatherlink.com 1.10,2013-08-29 08:26:00,
2013-08-29 04:41:00,66.0,65.0,30.00,NW,308,0.0,-999.0,96,-99.99,,,0.00,weatherlink.com 1.10,2013-08-29 08:41:00,
2013-08-29 04:56:00,65.2,64.0,30.00,NW,308,0.0,-999.0,96,-99.99,,,0.00,weatherlink.com 1.10,2013-08-29 08:56:00,
2013-08-29 05:11:00,65.1,64.0,30.00,NW,308,0.0,-999.0,97,-99.99,,,0.00,weatherlink.com 1.10,2013-08-29 09:11:00,
2013-08-29 05:26:00,64.2,63.0,30.00,NW,308,0.0,-999.0,96,-99.99,,,0.00,weatherlink.com 1.10,2013-08-29 09:26:00,
2013-08-29 05:41:00,63.5,62.0,30.00,NW,308,0.0,-999.0,96,-99.99,,,0.00,weatherlink.com 1.10,2013-08-29 09:41:00,
2013-08-29 05:56:00,62.8,62.0,30.01,NW,308,0.0,-999.0,96,-99.99,,,0.00,weatherlink.com 1.10,2013-08-29 09:56:00,
2013-08-29 06:11:00,62.9,62.0,30.01,NW,308,0.0,-999.0,97,-99.99,,,0.00,weatherlink.com 1.10,2013-08-29 10:11:00,
2013-08-29 06:26:00,62.2,61.0,30.01,NW,308,0.0,-999.0,96,-99.99,,,0.00,weatherlink.com 1.10,2013-08-29 10:26:00,
2013-08-29 06:41:00,61.8,61.0,30.01,NW,308,0.0,-999.0,97,-99.99,,,0.00,weatherlink.com 1.10,2013-08-29 10:41:00,
2013-08-29 06:56:00,61.9,61.0,30.02,NW,308,0.0,-999.0,97,-99.99,,,0.00,weatherlink.com 1.10,2013-08-29 10:56:00,
2013-08-29 07:11:00,61.9,61.0,30.02,NW,308,0.0,-999.0,97,-99.99,,,0.00,weatherlink.com 1.10,2013-08-29 11:11:00,
2013-08-29 07:26:00,62.9,62.0,30.03,NW,308,0.0,-999.0,98,-99.99,,,0.00,weatherlink.com 1.10,2013-08-29 11:26:00,
2013-08-29 07:41:00,64.0,64.0,30.03,NW,308,0.0,-999.0,98,-99.99,,,0.00,weatherlink.com 1.10,2013-08-29 11:41:00,
2013-08-29 07:56:00,66.0,66.0,30.03,NW,308,0.0,-999.0,98,-99.99,,,0.00,weatherlink.com 1.10,2013-08-29 11:56:00,
2013-08-29 08:11:00,67.4,67.0,30.04,NW,308,0.0,-999.0,98,-99.99,,,0.00,weatherlink.com 1.10,2013-08-29 12:11:00,
2013-08-29 08:26:00,68.5,68.0,30.04,NW,308,0.0,-999.0,98,-99.99,,,0.00,weatherlink.com 1.10,2013-08-29 12:26:00,
2013-08-29 08:41:00,69.8,69.0,30.04,NW,308,0.0,-999.0,97,-99.99,,,0.00,weatherlink.com 1.10,2013-08-29 12:41:00,
2013-08-29 08:56:00,71.5,70.0,30.04,NW,308,0.0,-999.0,95,-99.99,,,0.00,weatherlink.com 1.10,2013-08-29 12:56:00,
2013-08-29 09:11:00,72.4,69.0,30.05,NW,308,0.0,-999.0,90,-99.99,,,0.00,weatherlink.com 1.10,2013-08-29 13:11:00,
2013-08-29 09:26:00,73.2,70.0,30.05,NW,308,0.0,-999.0,88,-99.99,,,0.00,weatherlink.com 1.10,2013-08-29 13:26:00,
2013-08-29 09:41:00,74.1,69.0,30.05,East,95,2.0,-999.0,85,-99.99,,,0.00,weatherlink.com 1.10,2013-08-29 13:41:00,
2013-08-29 09:56:00,74.6,69.0,30.05,East,95,5.0,-999.0,83,-99.99,,,0.00,weatherlink.com 1.10,2013-08-29 13:56:00,
2013-08-29 10:11:00,75.7,70.0,30.05,East,98,5.0,-999.0,82,-99.99,,,0.00,weatherlink.com 1.10,2013-08-29 14:11:00,
2013-08-29 10:26:00,75.7,70.0,30.05,East,93,4.0,-999.0,82,-99.99,,,0.00,weatherlink.com 1.10,2013-08-29 14:26:00,
2013-08-29 10:41:00,76.9,71.0,30.05,East,94,4.0,-999.0,82,-99.99,,,0.00,weatherlink.com 1.10,2013-08-29 14:41:00,
2013-08-29 10:56:00,77.9,71.0,30.05,ESE,109,5.0,-999.0,78,-99.99,,,0.00,weatherlink.com 1.10,2013-08-29 14:56:00,
2013-08-29 11:11:00,78.9,70.0,30.05,East,96,6.0,-999.0,74,-99.99,,,0.00,weatherlink.com 1.10,2013-08-29 15:11:00,
2013-08-29 11:26:00,79.4,70.0,30.05,ESE,102,2.0,-999.0,72,-99.99,,,0.00,weatherlink.com 1.10,2013-08-29 15:26:00,
2013-08-29 11:41:00,80.0,71.0,30.05,East,96,0.0,-999.0,73,-99.99,,,0.00,weatherlink.com 1.10,2013-08-29 15:41:00,
2013-08-29 11:56:00,80.4,70.0,30.05,East,89,3.0,-999.0,71,-99.99,,,0.00,weatherlink.com 1.10,2013-08-29 15:56:00,
2013-08-29 12:11:00,81.6,70.0,30.05,East,90,0.0,-999.0,67,-99.99,,,0.00,weatherlink.com 1.10,2013-08-29 16:11:00,
2013-08-29 12:26:00,82.4,70.0,30.04,SE,132,0.0,-999.0,67,-99.99,,,0.00,weatherlink.com 1.10,2013-08-29 16:26:00,
2013-08-29 12:41:00,82.7,68.0,30.04,SE,132,0.0,-999.0,62,-99.99,,,0.00,weatherlink.com 1.10,2013-08-29 16:41:00,
2013-08-29 12:56:00,82.8,68.0,30.03,ESE,119,0.0,-999.0,62,-99.99,,,0.00,weatherlink.com 1.10,2013-08-29 16:56:00,
2013-08-29 13:11:00,83.1,69.0,30.03,ESE,109,1.0,-999.0,62,-99.99,,,0.00,weatherlink.com 1.10,2013-08-29 17:11:00,
2013-08-29 13:26:00,83.3,69.0,30.03,East,84,0.0,-999.0,63,-99.99,,,0.00,weatherlink.com 1.10,2013-08-29 17:26:00,
2013-08-29 13:41:00,84.2,67.0,30.03,ESE,119,0.0,-999.0,56,-99.99,,,0.00,weatherlink.com 1.10,2013-08-29 17:41:00,
2013-08-29 13:56:00,84.9,65.0,30.03,ESE,119,0.0,-999.0,51,-99.99,,,0.00,weatherlink.com 1.10,2013-08-29 17:56:00,
2013-08-29 14:11:00,84.7,66.0,30.03,ESE,115,0.0,-999.0,54,-99.99,,,0.00,weatherlink.com 1.10,2013-08-29 18:11:00,
2013-08-29 14:26:00,84.7,65.0,30.02,NE,46,0.0,-999.0,52,-99.99,,,0.00,weatherlink.com 1.10,2013-08-29 18:26:00,
2013-08-29 14:41:00,86.2,66.0,30.02,NE,55,0.0,-999.0,51,-99.99,,,0.00,weatherlink.com 1.10,2013-08-29 18:41:00,
2013-08-29 14:56:00,86.4,66.0,30.01,ENE,69,4.0,-999.0,50,-99.99,,,0.00,weatherlink.com 1.10,2013-08-29 18:56:00,
2013-08-29 15:11:00,85.6,66.0,30.01,East,83,4.0,-999.0,52,-99.99,,,0.00,weatherlink.com 1.10,2013-08-29 19:11:00,
2013-08-29 15:26:00,86.0,66.0,30.01,NE,46,0.0,-999.0,51,-99.99,,,0.00,weatherlink.com 1.10,2013-08-29 19:26:00,
2013-08-29 15:41:00,86.0,65.0,30.00,SE,128,0.0,-999.0,50,-99.99,,,0.00,weatherlink.com 1.10,2013-08-29 19:41:00,
2013-08-29 15:56:00,86.6,67.0,30.00,ESE,121,2.0,-999.0,52,-99.99,,,0.00,weatherlink.com 1.10,2013-08-29 19:56:00,
2013-08-29 16:11:00,86.6,68.0,29.99,East,100,0.0,-999.0,54,-99.99,,,0.00,weatherlink.com 1.10,2013-08-29 20:11:00,
2013-08-29 16:26:00,86.8,68.0,29.99,NE,44,4.0,-999.0,54,-99.99,,,0.00,weatherlink.com 1.10,2013-08-29 20:26:00,
2013-08-29 16:41:00,86.2,66.0,29.98,East,82,6.0,-999.0,51,-99.99,,,0.00,weatherlink.com 1.10,2013-08-29 20:41:00,
2013-08-29 16:56:00,86.1,68.0,29.98,East,89,0.0,-999.0,55,-99.99,,,0.00,weatherlink.com 1.10,2013-08-29 20:56:00,
2013-08-29 17:11:00,86.3,68.0,29.98,East,91,1.0,-999.0,54,-99.99,,,0.00,weatherlink.com 1.10,2013-08-29 21:11:00,
2013-08-29 17:26:00,86.3,66.0,29.98,East,98,2.0,-999.0,51,-99.99,,,0.00,weatherlink.com 1.10,2013-08-29 21:26:00,
2013-08-29 17:41:00,86.0,67.0,29.98,ESE,103,0.0,-999.0,53,-99.99,,,0.00,weatherlink.com 1.10,2013-08-29 21:41:00,
2013-08-29 17:56:00,85.9,67.0,29.98,SSE,150,0.0,-999.0,54,-99.99,,,0.00,weatherlink.com 1.10,2013-08-29 21:56:00,
2013-08-29 18:11:00,85.3,67.0,29.98,ENE,73,1.0,-999.0,55,-99.99,,,0.00,weatherlink.com 1.10,2013-08-29 22:11:00,
2013-08-29 18:26:00,84.9,67.0,29.97,East,86,4.0,-999.0,56,-99.99,,,0.00,weatherlink.com 1.10,2013-08-29 22:26:00,
2013-08-29 18:41:00,84.7,68.0,29.97,East,81,4.0,-999.0,57,-99.99,,,0.00,weatherlink.com 1.10,2013-08-29 22:41:00,
2013-08-29 18:56:00,84.2,68.0,29.97,East,92,5.0,-999.0,58,-99.99,,,0.00,weatherlink.com 1.10,2013-08-29 22:56:00,
2013-08-29 19:11:00,83.7,67.0,29.97,East,92,1.0,-999.0,58,-99.99,,,0.00,weatherlink.com 1.10,2013-08-29 23:11:00,
2013-08-29 19:26:00,83.0,69.0,29.97,East,92,0.0,-999.0,62,-99.99,,,0.00,weatherlink.com 1.10,2013-08-29 23:26:00,
2013-08-29 19:41:00,82.0,70.0,29.98,East,92,0.0,-999.0,67,-99.99,,,0.00,weatherlink.com 1.10,2013-08-29 23:41:00,
2013-08-29 19:56:00,80.6,70.0,29.97,East,92,0.0,-999.0,69,-99.99,,,0.00,weatherlink.com 1.10,2013-08-29 23:56:00,
2013-08-29 20:11:00,79.3,70.0,29.97,East,92,0.0,-999.0,73,-99.99,,,0.00,weatherlink.com 1.10,2013-08-30 00:11:00,
2013-08-29 20:26:00,77.8,70.0,29.97,East,92,0.0,-999.0,78,-99.99,,,0.00,weatherlink.com 1.10,2013-08-30 00:26:00,
2013-08-29 20:41:00,75.7,69.0,29.97,East,92,0.0,-999.0,79,-99.99,,,0.00,weatherlink.com 1.10,2013-08-30 00:41:00,
2013-08-29 20:56:00,74.9,69.0,29.97,East,92,0.0,-999.0,82,-99.99,,,0.00,weatherlink.com 1.10,2013-08-30 00:56:00,
2013-08-29 21:11:00,73.4,68.0,29.97,East,92,0.0,-999.0,84,-99.99,,,0.00,weatherlink.com 1.10,2013-08-30 01:11:00,
2013-08-29 21:26:00,72.9,69.0,29.98,SSE,159,0.0,-999.0,87,-99.99,,,0.00,weatherlink.com 1.10,2013-08-30 01:26:00,
2013-08-29 21:41:00,72.2,68.0,29.97,SSE,159,0.0,-999.0,86,-99.99,,,0.00,weatherlink.com 1.10,2013-08-30 01:41:00,
2013-08-29 21:56:00,71.1,67.0,29.96,SSE,159,0.0,-999.0,88,-99.99,,,0.00,weatherlink.com 1.10,2013-08-30 01:56:00,
2013-08-29 22:11:00,70.2,67.0,29.96,SSE,159,0.0,-999.0,90,-99.99,,,0.00,weatherlink.com 1.10,2013-08-30 02:11:00,
2013-08-29 22:26:00,69.0,66.0,29.96,SSE,159,0.0,-999.0,91,-99.99,,,0.00,weatherlink.com 1.10,2013-08-30 02:26:00,
2013-08-29 22:41:00,68.9,66.0,29.96,SSE,159,0.0,-999.0,91,-99.99,,,0.00,weatherlink.com 1.10,2013-08-30 02:41:00,
2013-08-29 22:56:00,68.5,66.0,29.96,SSE,159,0.0,-999.0,92,-99.99,,,0.00,weatherlink.com 1.10,2013-08-30 02:56:00,
2013-08-29 23:11:00,68.1,66.0,29.96,SSE,159,0.0,-999.0,92,-99.99,,,0.00,weatherlink.com 1.10,2013-08-30 03:11:00,
2013-08-29 23:26:00,67.4,65.0,29.95,SSE,159,0.0,-999.0,93,-99.99,,,0.00,weatherlink.com 1.10,2013-08-30 03:26:00,
2013-08-29 23:41:00,66.8,65.0,29.96,SSE,159,0.0,-999.0,93,-99.99,,,0.00,weatherlink.com 1.10,2013-08-30 03:41:00,
2013-08-29 23:56:00,66.5,65.0,29.95,SSE,159,0.0,-999.0,93,-99.99,,,0.00,weatherlink.com 1.10,2013-08-30 03:56:00,